RYR7835 LIBC-LIBR

Flight info

Callsign RYR7835
Flight time N/A
Altitude 22000
Route GEMVI DCT OKIMO
Aircraft B738/M-SDE2E3FGHIRWXY/LB1

Departure

Time 2026-05-08 20:23
Airport Crotone Sant'Anna Pythagoras Airport (LIBC)

Arrival

Time N/A
Airport Brindisi Airport (LIBR)
Time Latitude Longitude Altitude Speed Heading
2026-05-08 20:02 38.99645 17.07717 526 ft 0 kts 304°
2026-05-08 20:17 38.99652 17.07712 498 ft 1 kts 337°
2026-05-08 20:17 38.99661 17.07719 499 ft 2 kts 37°
2026-05-08 20:17 38.99665 17.07739 499 ft 3 kts 95°
2026-05-08 20:18 38.99661 17.07777 526 ft 6 kts 97°
2026-05-08 20:18 38.99634 17.07816 526 ft 7 kts 159°
2026-05-08 20:18 38.99577 17.07834 525 ft 10 kts 169°
2026-05-08 20:18 38.99502 17.07853 525 ft 12 kts 168°
2026-05-08 20:19 38.99421 17.07896 525 ft 14 kts 136°
2026-05-08 20:19 38.99354 17.07996 525 ft 16 kts 130°
2026-05-08 20:19 38.99281 17.08104 526 ft 16 kts 133°
2026-05-08 20:19 38.99180 17.08156 526 ft 16 kts 168°
2026-05-08 20:20 38.99075 17.08183 525 ft 15 kts 168°
2026-05-08 20:20 38.98975 17.08210 525 ft 14 kts 167°
2026-05-08 20:20 38.98887 17.08201 523 ft 8 kts 188°
2026-05-08 20:20 38.98853 17.08240 523 ft 7 kts 75°
2026-05-08 20:21 38.98872 17.08243 523 ft 3 kts 335°
2026-05-08 20:21 38.98889 17.08237 523 ft 0 kts 348°
2026-05-08 20:22 38.98947 17.08220 525 ft 39 kts 348°
2026-05-08 20:22 38.99507 17.08078 525 ft 121 kts 349°
2026-05-08 20:22 39.00552 17.07815 598 ft 179 kts 349°
2026-05-08 20:22 39.01391 17.07606 988 ft 192 kts 349°
2026-05-08 20:23 39.03293 17.07107 1623 ft 224 kts 347°
2026-05-08 20:23 39.04867 17.06683 2041 ft 234 kts 347°
2026-05-08 20:23 39.06430 17.06265 2530 ft 230 kts 347°
2026-05-08 20:23 39.07992 17.05866 3015 ft 227 kts 352°
2026-05-08 20:24 39.09542 17.06175 3486 ft 231 kts 25°
2026-05-08 20:24 39.10752 17.07554 3900 ft 241 kts 58°
2026-05-08 20:24 39.11169 17.09643 4297 ft 248 kts 95°
2026-05-08 20:24 39.10755 17.11831 4739 ft 258 kts 108°
2026-05-08 20:25 39.10196 17.14089 5173 ft 270 kts 109°
2026-05-08 20:25 39.09597 17.16436 5623 ft 283 kts 109°
2026-05-08 20:25 39.08964 17.18903 6070 ft 295 kts 110°
2026-05-08 20:25 39.08306 17.21467 6518 ft 308 kts 110°
2026-05-08 20:26 39.07633 17.24097 6941 ft 319 kts 110°
2026-05-08 20:26 39.06918 17.26897 7372 ft 330 kts 110°
2026-05-08 20:26 39.06202 17.29701 7793 ft 336 kts 110°
2026-05-08 20:26 39.05470 17.32564 8208 ft 337 kts 110°
2026-05-08 20:27 39.04735 17.35443 8636 ft 341 kts 109°
2026-05-08 20:27 39.04230 17.38455 9098 ft 351 kts 89°
2026-05-08 20:27 39.04663 17.41558 9746 ft 354 kts 73°
2026-05-08 20:27 39.05360 17.44608 10302 ft 358 kts 73°
2026-05-08 20:28 39.05997 17.47734 10846 ft 363 kts 75°
2026-05-08 20:28 39.06558 17.50886 11394 ft 368 kts 76°
2026-05-08 20:28 39.07093 17.54128 11962 ft 372 kts 77°
2026-05-08 20:28 39.07618 17.57414 12535 ft 376 kts 77°
2026-05-08 20:29 39.08146 17.60737 13123 ft 380 kts 77°
2026-05-08 20:29 39.08681 17.64096 13724 ft 384 kts 77°
2026-05-08 20:29 39.09217 17.67447 14263 ft 388 kts 77°
2026-05-08 20:29 39.09767 17.70883 14801 ft 393 kts 76°
2026-05-08 20:30 39.10381 17.74328 15338 ft 396 kts 68°
2026-05-08 20:30 39.11689 17.77407 15889 ft 390 kts 45°
2026-05-08 20:30 39.13690 17.79683 16464 ft 381 kts 25°
2026-05-08 20:30 39.16073 17.81077 17049 ft 371 kts
2026-05-08 20:31 39.18564 17.81614 17656 ft 366 kts 359°
2026-05-08 20:31 39.21088 17.82330 18245 ft 377 kts 11°
2026-05-08 20:31 39.23587 17.83550 18529 ft 392 kts 15°
2026-05-08 20:31 39.26161 17.84987 18539 ft 411 kts 17°
2026-05-08 20:32 39.28824 17.86514 18558 ft 426 kts 17°
2026-05-08 20:32 39.31581 17.88070 18556 ft 438 kts 17°
2026-05-08 20:32 39.34352 17.89584 18851 ft 436 kts 16°
2026-05-08 20:32 39.37175 17.91051 18883 ft 445 kts 15°
2026-05-08 20:33 39.40055 17.92546 18729 ft 443 kts 15°
2026-05-08 20:33 39.42831 17.93978 18047 ft 445 kts 15°
2026-05-08 20:33 39.45685 17.95426 17615 ft 434 kts 15°